Location: Novokuznetsk
(53.7500°N, 87.1000°E)
Time: 02:16:58
(UTC+06:00)

ISS - Pass Details

Date: 19 July 2018
Orbit: 402 x 408 km, 51.6° (Epoch: 20 July)

Event Time Altitude Azimuth Distance (km) Brightness Sun altitude
Exits shadow 00:53:17 - 260° (W) 1,931 -0.6 -14.9°
Reaches altitude 10° 00:54:25 10° 258° (WSW) 1,467 -1.2 -14.9°
Maximum altitude 00:57:39 60° 178° (S) 472 -3.9 -14.8°
Drops below altitude 10° 01:00:55 10° 97° (E) 1,471 -1.0 -14.7°
Sets 01:03:01 0° 94° (E) 2,332 0.1 -14.7°
